Погода в Славуте

Украина / Хмельницкая область     50°18′09″N   26°52′06″E
темп.,
°C
ветер,
м/с
пор.,
м/с
влажн.,
%
обл.,
%
осадки,
мм/ч
давл.,
гПа
погр.,
м
9 мая, вс
вс900:00+3з25915 0.0 102188
03:00+2з36945 0.0 1022122
06:00+1з26960 0.0 1024123
09:00+7зсз35705 0.0 1025543
12:00+11зсз34475 0.0 10241534
15:00+14зсз24395 0.0 10242069
18:00+14сз13408 0.0 10231798
21:00+8вюв34645 0.0 102546
10 мая, пн
пн1000:00+6юв38695 0.0 1026132
03:00+5ююв37745 0.0 1026124
06:00+5ююв36765 0.0 1026106
09:00+12ююв475662 0.0 1025393
12:00+16ююв6746100 0.0 10251255
15:00+18ююв564489 0.0 10241423
18:00+17юв565240 0.0 10231275
21:00+11вюв39786 0.0 1024154
11 мая, вт
вт1100:00+9юв410810 0.0 1024193
03:00+8юв411810 0.0 1024203
06:00+7юв410830 0.0 1023204
09:00+13вюв58620 0.0 1023515
12:00+16вюв57400 0.0 10221151
15:00+18вюв46360 0.0 10201405
18:00+18вюв56530 0.0 10191184
21:00+13в398121 0.0 1018218
12 мая, ср
ср1200:00+10вюв38935 0.0 1018180
03:00+10в3109716 0.0 1017318
06:00+8в499714 0.0 1016311
09:00+12в577111 0.0 1015795
12:00+14в675332 0.0 10141524
15:00+13вюв575389 0.0 10131560
18:00+13в3657100 0.0 10121406
21:00+9всв247835 0.1 101179
13 мая, чт
чт1300:00+8вюв389014 0.1 1010255
03:00+5вюв36977 0.1 1009128
06:00+5вюв39932 0.0 1009210
09:00+8вюв51295100 0.4 1008631
12:00+11юв61289100 0.8 1007992
15:00+11ююв71291100 2.0 1007839
18:00+10ююв51192100 1.8 1007601
21:00+9юв3896100 1.8 1007240